Location: Coffee Creek Observatory
(38.8077°N, 94.7179°W)
Time: 19:01:58
(UTC-05:00)

Amateur Radio Satellites - All Passes

Search period start: 27 September 2016 18:31
Search period end: 28 September 2016 18:31
Location: Coffee Creek Observatory, 38.8077°N, 94.7179°W

Satellite Date Start Highest point End Downlink Frequencies (MHz)
Time Altitude Azimuth
MOZHAYETS 4 27 Sep 18:33:26 18:35:40 14° 296° (WNW) 18:37:55
LilacSat-2 27 Sep 18:41:01 18:44:45 70° 76° (ENE) 18:48:31 437.200
GOMX 1 27 Sep 19:04:16 19:09:36 60° 259° (W) 19:14:46 467.674
CINEMA 3 27 Sep 19:07:06 19:09:46 16° 67° (ENE) 19:12:24 145.822/145.860
NOAA 18 27 Sep 19:07:30 19:12:58 80° 256° (WSW) 19:18:28 137.9125
RS-15 27 Sep 19:09:41 19:18:48 28° 102° (ESE) 19:28:14 29.354- 29.394
BRITE-PL 27 Sep 19:14:14 19:18:48 25° 267° (W) 19:23:21 437.365/2234.400
O/OREOS (USA 219) 27 Sep 19:23:58 19:25:56 13° 262° (W) 19:27:54 437.305
DANDE 27 Sep 19:25:35 19:28:37 15° 78° (ENE) 19:32:04 436.750
DOVE 4 27 Sep 19:27:32 19:32:37 78° 258° (WSW) 19:37:27 437.250
CUTE 1.7 + AOD 2 27 Sep 19:28:44 19:31:39 18° 67° (ENE) 19:34:35 437.475
CANX-2 27 Sep 19:29:34 19:32:48 22° 68° (ENE) 19:36:03 2200.000
SEEDS 27 Sep 19:31:39 19:33:46 14° 65° (ENE) 19:35:53 437.485
CUSAT 1 27 Sep 19:36:16 19:42:12 62° 93° (E) 19:49:34 437.405
Cosmos 2499 27 Sep 19:41:40 19:48:11 30° 73° (ENE) 19:55:04 435.465 / 435.565
GONETS M04 27 Sep 19:42:35 19:50:40 38° 73° (ENE) 19:58:37
CUBESAT XI-V 27 Sep 19:51:59 19:54:40 15° 296° (WNW) 19:57:22 437.345
AAUSAT CUBESAT 2 27 Sep 19:55:14 19:57:12 13° 65° (ENE) 19:59:10 437.432
NOAA 15 27 Sep 19:55:48 19:59:29 19° 267° (W) 20:03:13 137.62
HO-68 27 Sep 20:10:59 20:18:07 74° 71° (ENE) 20:25:17 435.675
Cubesat XI-IV 27 Sep 20:11:21 20:14:45 17° 268° (W) 20:18:11 437.490
CUTE-I 27 Sep 20:11:40 20:15:01 17° 268° (W) 20:18:23 437.470
CUBEBUG 2 27 Sep 20:15:48 20:19:02 22° 69° (ENE) 20:22:15 437.445
ISS 27 Sep 20:30:48 20:33:51 39° 136° (SE) 20:36:55 145.825
UWE-3 27 Sep 20:34:22 20:37:40 23° 69° (ENE) 20:40:56 435.000/436.395/437.385
COMPASS 1 27 Sep 20:36:51 20:40:53 50° 74° (ENE) 20:44:57 437.405
CINEMA 3 27 Sep 20:42:15 20:46:35 45° 261° (W) 20:50:46 145.822/145.860
STRAND 1 27 Sep 20:46:15 20:51:25 89° 103° (ESE) 20:56:35 437.568
Oscar 11 27 Sep 21:02:09 21:05:53 29° 70° (ENE) 21:09:39 145.826/435.025
CUTE 1.7 + AOD 2 27 Sep 21:03:20 21:07:13 35° 263° (W) 21:11:08 437.475
ZACube-1 27 Sep 21:03:51 21:07:28 30° 71° (ENE) 21:11:07 437.345
CANX-2 27 Sep 21:04:46 21:08:28 29° 264° (W) 21:12:12 2200.000
SEEDS 27 Sep 21:04:57 21:09:01 49° 261° (W) 21:13:08 437.485
DANDE 27 Sep 21:05:16 21:10:11 64° 283° (WNW) 21:16:48 436.750
DELFI C3 27 Sep 21:16:38 21:19:05 16° 67° (ENE) 21:21:33 145.870
RS-15 27 Sep 21:18:21 21:29:56 77° 303° (WNW) 21:42:13 29.354- 29.394
CUSAT 1 27 Sep 21:19:53 21:24:56 24° 296° (WNW) 21:30:45 437.405
PRISM 27 Sep 21:21:34 21:24:23 18° 94° (E) 21:27:11 437.425
AAUSAT CUBESAT 2 27 Sep 21:28:12 21:32:13 50° 261° (W) 21:36:17 437.432
HUMSAT D 27 Sep 21:28:59 21:29:54 11° 64° (ENE) 21:30:50 437.325/437.525
Cosmos 2499 27 Sep 21:34:13 21:41:29 51° 269° (W) 21:49:17 435.465 / 435.565
AO-85 27 Sep 21:39:18 21:44:33 77° 119° (ESE) 21:49:30 145.980
GONETS M04 27 Sep 21:39:20 21:47:31 45° 272° (W) 21:55:38
CUBEBUG 2 27 Sep 21:51:55 21:55:32 27° 264° (W) 21:59:07 437.445
FUNcube-1 27 Sep 21:57:30 22:01:36 65° 259° (W) 22:05:43 145.935
HO-68 27 Sep 22:01:39 22:06:26 19° 268° (W) 22:11:15 435.675
ISS 27 Sep 22:07:42 22:10:26 24° 332° (NNW) 22:13:10 145.825
UWE-3 27 Sep 22:10:30 22:14:00 26° 264° (W) 22:17:29 435.000/436.395/437.385
COMPASS 1 27 Sep 22:15:04 22:16:43 12° 269° (W) 22:18:23 437.405
ANTELSAT 27 Sep 22:21:03 22:22:06 11° 91° (E) 22:23:08 437.575/2403.000
JUGNU 27 Sep 22:27:44 22:29:30 11° 179° (S) 22:31:17 437.505
STRAND 1 27 Sep 22:28:20 22:29:49 11° 300° (WNW) 22:31:17 437.568
Oscar 11 27 Sep 22:38:40 22:42:01 22° 266° (W) 22:45:22 145.826/435.025
TIGRISAT 27 Sep 22:39:55 22:42:51 17° 94° (E) 22:45:49 435.000
ZACube-1 27 Sep 22:40:49 22:43:48 19° 266° (W) 22:46:48 437.345
DELFI C3 27 Sep 22:49:53 22:53:36 37° 262° (W) 22:57:20 145.870
PRISM 27 Sep 22:56:02 22:59:46 33° 289° (WNW) 23:03:27 437.425
HUMSAT D 27 Sep 23:00:58 23:04:59 60° 260° (W) 23:09:03 437.325/437.525
UNISAT 6 27 Sep 23:19:23 23:23:42 51° 100° (E) 23:28:06 437.425
AO-85 27 Sep 23:22:15 23:25:29 17° 315° (NW) 23:28:37 145.980
DX 1 27 Sep 23:33:17 23:35:34 14° 64° (ENE) 23:37:51 434.975-435.025
RS-15 27 Sep 23:35:07 23:44:52 28° 331° (NNW) 23:54:58 29.354- 29.394
ESTCUBE 1 27 Sep 23:39:00 23:43:24 52° 73° (ENE) 23:47:49 437.505/2401.250
VELOX 1 27 Sep 23:39:31 23:43:12 26° 69° (ENE) 23:46:52 145.980
AUBIESAT-1 27 Sep 23:43:07 23:46:13 22° 65° (ENE) 23:49:10 437.475
CUBEBUG 1 27 Sep 23:43:32 23:47:34 36° 71° (ENE) 23:51:37 437.445
JAS-2 27 Sep 23:51:35 23:57:02 20° 88° (E) 00:02:16 435.910
QB50P2 27 Sep 23:53:22 23:55:51 15° 93° (E) 23:58:21 145.880/145.840
ANTELSAT 27 Sep 23:54:46 23:59:09 64° 285° (WNW) 00:03:36 437.575/2403.000
POLYITAN 1 27 Sep 23:55:34 23:58:04 15° 93° (E) 00:00:34 437.675
TIGRISAT 28 Sep 00:15:33 00:19:40 40° 288° (WNW) 00:23:51 435.000
M-CUBED/EXP-1 PRIME 28 Sep 00:19:15 00:23:27 75° 71° (ENE) 00:27:20 437.505
50 SAT 28 Sep 00:20:18 00:23:54 70° 75° (ENE) 00:27:33 437.505
SPROUT 28 Sep 00:24:40 00:28:41 42° 72° (ENE) 00:32:42 437.525
AISAT 28 Sep 00:31:18 00:35:45 80° 257° (WSW) 00:40:13 437.250
SO-50 28 Sep 00:31:47 00:36:14 49° 54° (NE) 00:40:34 436.795
DUCHIFAT 1 28 Sep 00:32:32 00:36:22 35° 98° (E) 00:40:13 145.980
QB50P1 28 Sep 00:34:29 00:38:30 43° 99° (E) 00:42:30 145.935-145.965
BUGSAT 1 28 Sep 00:36:25 00:38:37 14° 93° (E) 00:40:50 437.445
UKube-1 28 Sep 00:38:27 00:42:40 55° 74° (ENE) 00:46:56 .
POPSAT HIP 1 28 Sep 00:47:53 00:52:03 61° 101° (E) 00:56:14 437.405
UNISAT 6 28 Sep 00:57:36 01:00:00 15° 295° (WNW) 01:02:26 437.425
BEESAT 2 28 Sep 01:01:51 01:04:17 16° 110° (ESE) 01:06:43 435.950
NANOSAT C BR1 28 Sep 01:04:13 01:08:26 88° 276° (W) 01:12:38 145.865
DX 1 28 Sep 01:07:02 01:11:18 52° 260° (W) 01:15:35 434.975-435.025
SRMSAT 28 Sep 01:12:16 01:14:04 11° 180° (S) 01:15:52 437.500
VELOX 1 28 Sep 01:15:45 01:19:32 27° 264° (W) 01:23:21 145.980
AUBIESAT-1 28 Sep 01:17:01 01:20:32 27° 257° (WSW) 01:23:52 437.475
ESTCUBE 1 28 Sep 01:18:12 01:20:29 14° 269° (W) 01:22:49 437.505/2401.250
CUBEBUG 1 28 Sep 01:20:48 01:23:56 19° 266° (W) 01:27:04 437.445
ISS 28 Sep 01:24:34 01:25:35 11° 13° (NNE) 01:26:37 145.825
Cosmos 2491 28 Sep 01:26:01 01:33:03 26° 68° (ENE) 01:40:01 435.465 / 435.565
QB50P2 28 Sep 01:27:52 01:31:49 40° 288° (WNW) 01:35:47 145.880/145.840
POLYITAN 1 28 Sep 01:30:04 01:34:02 40° 288° (WNW) 01:37:59 437.675
JAS-2 28 Sep 01:34:51 01:42:45 79° 286° (WNW) 01:50:13 435.910
BEESAT 3 28 Sep 01:42:11 01:46:04 79° 301° (WNW) 01:50:01 437.485
TISAT 1 28 Sep 01:44:50 01:48:59 67° 75° (ENE) 01:53:09 437.305
RS-15 28 Sep 01:55:17 02:03:27 19° 7° (N) 02:11:41 29.354- 29.394
SPROUT 28 Sep 02:02:18 02:04:47 15° 267° (W) 02:07:18 437.525
ITUPSAT 1 28 Sep 02:04:19 02:07:54 22° 66° (ENE) 02:11:30 437.325
DUCHIFAT 1 28 Sep 02:08:56 02:11:48 18° 293° (WNW) 02:14:40 145.980
BUGSAT 1 28 Sep 02:10:25 02:14:09 39° 288° (WNW) 02:17:54 437.445
QB50P1 28 Sep 02:11:27 02:13:54 15° 294° (WNW) 02:16:22 145.935-145.965
SO-50 28 Sep 02:13:28 02:16:16 16° 251° (WSW) 02:19:01 436.795
Oscar 19 28 Sep 02:14:38 02:19:23 36° 98° (E) 02:24:05 437.125/150
SWISSCUBE 28 Sep 02:16:39 02:20:51 32° 69° (ENE) 02:25:04 437.505
UKube-1 28 Sep 02:17:25 02:19:02 12° 268° (W) 02:20:39 .
YUBILEINY 28 Sep 02:25:03 02:31:44 25° 82° (E) 02:38:22 435.215
POPSAT HIP 1 28 Sep 02:26:02 02:27:18 11° 296° (WNW) 02:28:34 437.405
BEESAT 28 Sep 02:29:24 02:33:47 39° 71° (ENE) 02:38:13 436.000
BEESAT 2 28 Sep 02:38:02 02:41:45 39° 306° (NW) 02:45:31 435.950
ISS 28 Sep 02:59:46 03:02:50 35° 32° (NNE) 03:05:54 145.825
ITAMSAT 1 28 Sep 03:09:20 03:12:13 15° 92° (E) 03:15:05 435.822/435.867
AO-7 28 Sep 03:11:35 03:12:36 10° 88° (E) 03:13:37 29.400- 29.500
Gurwin Techsat 1B 28 Sep 03:12:34 03:17:51 63° 101° (ESE) 03:23:07 435.225
Cosmos 2504 28 Sep 03:17:34 03:21:48 16° 81° (E) 03:25:58 435.465 / 435.565
Cosmos 2491 28 Sep 03:21:50 03:30:34 67° 268° (W) 03:39:15 435.465 / 435.565
JAS-2 28 Sep 03:21:56 03:26:27 17° 305° (NW) 03:30:53 435.910
AIST 2 28 Sep 03:24:12 03:27:08 19° 111° (ESE) 03:30:05 435.215
ITUPSAT 1 28 Sep 03:41:03 03:45:28 38° 262° (W) 03:49:56 437.325
Oscar 19 28 Sep 03:54:20 03:58:30 25° 294° (WNW) 04:02:39 437.125/150
SWISSCUBE 28 Sep 03:54:46 03:58:38 24° 265° (W) 04:02:32 437.505
MOZHAYETS 4 28 Sep 03:54:52 03:59:15 49° 73° (ENE) 04:03:40
BEESAT 28 Sep 04:08:12 04:11:41 20° 266° (W) 04:15:12 436.000
RS-15 28 Sep 04:09:45 04:21:05 39° 40° (NE) 04:32:11 29.354- 29.394
YUBILEINY 28 Sep 04:19:01 04:27:44 66° 280° (W) 04:36:28 435.215
KKS-1 28 Sep 04:19:18 04:23:40 59° 74° (ENE) 04:28:03 437.445
ISS 28 Sep 04:36:31 04:39:12 23° 228° (SW) 04:41:52 145.825
PCSat 28 Sep 04:42:46 04:48:01 54° 113° (ESE) 04:53:18 145.827
ITAMSAT 1 28 Sep 04:46:55 04:52:04 62° 287° (WNW) 04:57:13 435.822/435.867
STARS 28 Sep 04:52:34 04:56:54 65° 75° (ENE) 05:01:16 437.465
Gurwin Techsat 1B 28 Sep 04:54:00 04:57:15 17° 298° (WNW) 05:00:29 435.225
AO-7 28 Sep 04:58:26 05:06:43 68° 105° (ESE) 05:14:57 29.400- 29.500
AIST 2 28 Sep 05:01:33 05:05:21 36° 307° (NW) 05:09:11 435.215
Cosmos 2504 28 Sep 05:06:50 05:14:17 76° 278° (W) 05:21:29 435.465 / 435.565
CUBESAT XI-V 28 Sep 05:14:55 05:19:22 45° 73° (ENE) 05:23:52 437.345
Cosmos 2491 28 Sep 05:24:16 05:25:34 10° 287° (WNW) 05:26:53 435.465 / 435.565
HORYU 2 28 Sep 05:32:48 05:35:46 17° 94° (E) 05:38:44 437.375
MOZHAYETS 4 28 Sep 05:34:05 05:36:40 15° 268° (W) 05:39:16
BRITE-PL 28 Sep 05:43:40 05:45:47 13° 88° (E) 05:47:50 437.365/2234.400
AIST 1 28 Sep 05:56:52 06:01:15 87° 96° (E) 06:05:39
KKS-1 28 Sep 05:59:00 06:00:35 12° 269° (W) 06:02:09 437.445
DANDE 28 Sep 06:02:48 06:08:45 21° 63° (ENE) 06:14:26 436.750
CUSAT 1 28 Sep 06:12:29 06:19:49 45° 72° (ENE) 06:25:59 437.405
AO-85 28 Sep 06:13:00 06:16:54 39° 53° (NE) 06:20:35 145.980
RS-15 28 Sep 06:22:21 06:34:40 74° 245° (WSW) 06:46:37 29.354- 29.394
YUBILEINY 28 Sep 06:23:41 06:26:25 12° 302° (WNW) 06:29:08 435.215
STRAND 1 28 Sep 06:24:59 06:27:22 13° 61° (ENE) 06:29:44 437.568
PCSat 28 Sep 06:27:32 06:31:44 22° 311° (NW) 06:35:58 145.827
NOAA 15 28 Sep 06:31:37 06:35:32 21° 94° (E) 06:39:25 137.62
STARS 28 Sep 06:33:13 06:33:39 10° 269° (W) 06:34:05 437.465
Cubesat XI-IV 28 Sep 06:48:15 06:52:34 24° 95° (E) 06:56:52 437.490
CUTE-I 28 Sep 06:48:19 06:52:39 25° 95° (E) 06:56:59 437.470
AO-7 28 Sep 06:52:13 06:58:49 28° 303° (WNW) 07:05:25 29.400- 29.500
CUBESAT XI-V 28 Sep 06:53:53 06:56:56 17° 268° (W) 07:00:01 437.345
Cosmos 2504 28 Sep 07:06:51 07:08:54 11° 298° (WNW) 07:10:55 435.465 / 435.565
GOMX 1 28 Sep 07:08:10 07:12:19 42° 98° (E) 07:16:18 467.674
HORYU 2 28 Sep 07:08:18 07:12:27 40° 289° (WNW) 07:16:37 437.375
BRITE-PL 28 Sep 07:20:04 07:24:45 54° 287° (WNW) 07:29:04 437.365/2234.400
DOVE 4 28 Sep 07:28:27 07:32:02 27° 96° (E) 07:35:35 437.250
NOAA 18 28 Sep 07:30:54 07:36:11 48° 100° (E) 07:41:28 137.9125
HO-68 28 Sep 07:42:53 07:46:09 13° 89° (E) 07:49:24 435.675
DANDE 28 Sep 07:44:07 07:52:36 88° 260° (W) 08:00:19 436.750
LilacSat-2 28 Sep 07:49:36 07:53:25 61° 284° (WNW) 07:57:12 437.200
O/OREOS (USA 219) 28 Sep 07:53:12 07:57:45 87° 106° (ESE) 08:02:21 437.305
AO-85 28 Sep 07:54:29 07:56:54 16° 251° (WSW) 07:59:15 145.980
CUSAT 1 28 Sep 07:54:57 08:01:30 33° 274° (W) 08:07:06 437.405
STRAND 1 28 Sep 08:00:48 08:05:52 74° 257° (WSW) 08:11:00 437.568
NOAA 15 28 Sep 08:10:27 08:15:30 46° 289° (WNW) 08:20:31 137.62
PRISM 28 Sep 08:11:06 08:12:40 12° 64° (ENE) 08:14:14 437.425
Cosmos 2499 28 Sep 08:18:55 08:24:06 22° 83° (E) 08:29:13 435.465 / 435.565
Cubesat XI-IV 28 Sep 08:27:46 08:32:44 40° 290° (WNW) 08:37:41 437.490
CUTE-I 28 Sep 08:27:50 08:32:47 39° 291° (WNW) 08:37:44 437.470
CINEMA 3 28 Sep 08:37:46 08:41:45 42° 99° (E) 08:45:48 145.822/145.860
RS-15 28 Sep 08:38:40 08:44:51 16° 264° (W) 08:50:58 29.354- 29.394
GONETS M04 28 Sep 08:41:43 08:49:57 46° 88° (E) 08:58:12
GOMX 1 28 Sep 08:47:27 08:50:01 16° 295° (WNW) 08:52:32 467.674
CUTE 1.7 + AOD 2 28 Sep 08:49:06 08:53:11 41° 98° (E) 08:57:14 437.475
SEEDS 28 Sep 08:50:13 08:53:56 29° 96° (E) 08:57:38 437.485
CANX-2 28 Sep 08:50:20 08:54:33 49° 99° (E) 08:58:42 2200.000
DOVE 4 28 Sep 09:06:26 09:09:36 21° 292° (WNW) 09:12:45 437.250
AAUSAT CUBESAT 2 28 Sep 09:11:55 09:15:29 26° 96° (E) 09:19:00 437.432
NOAA 18 28 Sep 09:12:22 09:16:29 22° 296° (WNW) 09:20:35 137.9125
HO-68 28 Sep 09:27:33 09:34:45 87° 107° (ESE) 09:41:55 435.675
DANDE 28 Sep 09:29:05 09:34:08 18° 281° (W) 09:38:59 436.750
O/OREOS (USA 219) 28 Sep 09:37:08 09:37:49 10° 308° (NW) 09:38:31 437.305
TIGRISAT 28 Sep 09:38:43 09:40:38 13° 65° (ENE) 09:42:35 435.000
CUBEBUG 2 28 Sep 09:42:43 09:46:59 61° 100° (E) 09:51:21 437.445
PRISM 28 Sep 09:43:21 09:47:27 57° 259° (W) 09:51:35 437.425
FUNcube-1 28 Sep 09:46:46 09:50:23 25° 96° (E) 09:54:02 145.935
COMPASS 1 28 Sep 09:56:07 10:00:19 70° 284° (WNW) 10:04:29 437.405
UWE-3 28 Sep 10:00:01 10:04:19 62° 100° (E) 10:08:43 435.000/436.395/437.385
BEESAT 3 28 Sep 10:00:31 10:04:14 37° 54° (NE) 10:07:56 437.485
Cosmos 2499 28 Sep 10:09:35 10:16:36 57° 281° (W) 10:23:33 435.465 / 435.565
CINEMA 3 28 Sep 10:16:08 10:18:34 15° 293° (WNW) 10:21:01 145.822/145.860
UNISAT 6 28 Sep 10:17:11 10:21:06 37° 71° (ENE) 10:25:01 437.425
Oscar 11 28 Sep 10:25:49 10:30:12 73° 102° (ESE) 10:34:32 145.826/435.025
CUTE 1.7 + AOD 2 28 Sep 10:25:57 10:28:40 17° 294° (WNW) 10:31:24 437.475
SEEDS 28 Sep 10:26:08 10:29:28 22° 291° (WNW) 10:32:46 437.485
CANX-2 28 Sep 10:27:42 10:29:57 14° 295° (WNW) 10:32:12 2200.000
ZACube-1 28 Sep 10:28:28 10:32:50 82° 103° (ESE) 10:37:16 437.345
DELFI C3 28 Sep 10:28:36 10:32:05 28° 96° (E) 10:35:34 145.870
GONETS M04 28 Sep 10:38:47 10:46:49 38° 287° (WNW) 10:54:56
PHONESAT 2.4 28 Sep 10:42:31 10:44:59 25° 152° (SSE) 10:47:28 2401.200-2431.200
HUMSAT D 28 Sep 10:45:52 10:49:17 23° 95° (E) 10:52:42 437.325/437.525
QB50P2 28 Sep 10:46:50 10:47:34 10° 63° (ENE) 10:48:18 145.880/145.840
AAUSAT CUBESAT 2 28 Sep 10:47:29 10:50:49 23° 291° (WNW) 10:54:09 437.432
POLYITAN 1 28 Sep 10:49:04 10:49:47 10° 63° (ENE) 10:50:29 437.675
ANTELSAT 28 Sep 10:52:09 10:56:26 86° 258° (WSW) 11:00:43 437.575/2403.000
BEESAT 2 28 Sep 10:56:44 11:00:45 76° 58° (ENE) 11:04:45 435.950
TIGRISAT 28 Sep 11:12:43 11:16:53 52° 260° (W) 11:21:02 435.000
HO-68 28 Sep 11:17:05 11:21:32 18° 304° (NW) 11:26:01 435.675
CUBEBUG 2 28 Sep 11:21:34 11:23:07 12° 295° (WNW) 11:24:41 437.445
FUNcube-1 28 Sep 11:22:55 11:26:33 27° 290° (WNW) 11:30:15 145.935
DUCHIFAT 1 28 Sep 11:23:33 11:26:47 22° 68° (ENE) 11:30:02 145.980
QB50P1 28 Sep 11:25:51 11:29:24 27° 70° (ENE) 11:32:57 145.935-145.965
ESTCUBE 1 28 Sep 11:34:51 11:36:37 12° 91° (E) 11:38:22 437.505/2401.250
UWE-3 28 Sep 11:38:44 11:40:16 12° 296° (WNW) 11:41:48 435.000/436.395/437.385
BEESAT 3 28 Sep 11:38:57 11:41:35 17° 250° (WSW) 11:44:13 437.485
POPSAT HIP 1 28 Sep 11:39:02 11:42:55 37° 72° (ENE) 11:46:48 437.405
JAS-2 28 Sep 11:44:59 11:51:01 43° 67° (ENE) 11:57:47 435.910
AIST 2 28 Sep 11:47:07 11:48:41 12° 42° (NE) 11:50:16 435.215
NANOSAT C BR1 28 Sep 11:54:46 11:58:51 55° 74° (ENE) 12:02:57 145.865
UNISAT 6 28 Sep 11:55:09 11:57:56 17° 267° (W) 12:00:44 437.425
DELFI C3 28 Sep 12:03:46 12:06:43 20° 292° (WNW) 12:09:41 145.870
Oscar 11 28 Sep 12:05:18 12:05:41 10° 297° (WNW) 12:06:05 145.826/435.025
PHONESAT 2.4 28 Sep 12:17:58 12:20:54 82° 347° (NNW) 12:23:52 2401.200-2431.200
QB50P2 28 Sep 12:18:37 12:22:48 66° 259° (W) 12:26:59 145.880/145.840
POLYITAN 1 28 Sep 12:20:50 12:25:00 66° 259° (W) 12:29:11 437.675
HUMSAT D 28 Sep 12:21:13 12:24:51 28° 290° (WNW) 12:28:30 437.325/437.525
AISAT 28 Sep 12:23:30 12:26:49 21° 95° (E) 12:30:05 437.250
DX 1 28 Sep 12:56:43 13:00:28 28° 97° (E) 13:04:11 434.975-435.025
Gurwin Techsat 1B 28 Sep 12:57:07 12:58:30 11° 59° (ENE) 12:59:54 435.225
AUBIESAT-1 28 Sep 12:57:14 12:59:06 14° 100° (E) 13:00:59 437.475
BUGSAT 1 28 Sep 12:58:11 13:02:17 71° 257° (WSW) 13:06:22 437.445
DUCHIFAT 1 28 Sep 12:58:45 13:02:19 27° 263° (W) 13:05:56 145.980
QB50P1 28 Sep 13:01:48 13:05:08 23° 265° (W) 13:08:28 145.935-145.965
VELOX 1 28 Sep 13:06:15 13:10:37 60° 101° (E) 13:14:56 145.980
CUBEBUG 1 28 Sep 13:09:03 13:13:25 88° 101° (E) 13:17:43 437.445
ESTCUBE 1 28 Sep 13:09:18 13:13:47 59° 286° (WNW) 13:18:12 437.505/2401.250
POPSAT HIP 1 28 Sep 13:16:09 13:18:49 16° 267° (W) 13:21:29 437.405
50 SAT 28 Sep 13:22:28 13:26:08 78° 283° (WNW) 13:29:46 437.505
AIST 2 28 Sep 13:23:32 13:27:44 85° 240° (WSW) 13:31:55 435.215
Oscar 19 28 Sep 13:30:00 13:34:58 47° 71° (ENE) 13:39:57 437.125/150
JAS-2 28 Sep 13:30:27 13:36:08 33° 267° (W) 13:42:29 435.910
PCSat 28 Sep 13:32:02 13:36:56 34° 54° (NE) 13:41:49 145.827
TISAT 1 28 Sep 13:32:25 13:33:32 11° 91° (E) 13:34:38 437.305
NANOSAT C BR1 28 Sep 13:33:45 13:34:54 11° 269° (W) 13:36:03 145.865
M-CUBED/EXP-1 PRIME 28 Sep 13:33:58 13:37:12 61° 106° (ESE) 13:40:28 437.505
SPROUT 28 Sep 13:47:13 13:51:29 82° 284° (WNW) 13:55:44 437.525
PHONESAT 2.4 28 Sep 13:54:13 13:57:08 61° 4° (N) 14:00:03 2401.200-2431.200
AISAT 28 Sep 13:59:24 14:03:19 32° 290° (WNW) 14:07:12 437.250
UKube-1 28 Sep 14:02:33 14:06:50 66° 286° (WNW) 14:11:05 .
AO-7 28 Sep 14:07:25 14:12:27 18° 51° (NE) 14:17:29 29.400- 29.500
ITAMSAT 1 28 Sep 14:25:50 14:29:38 21° 64° (ENE) 14:33:27 435.822/435.867
Cosmos 2491 28 Sep 14:26:01 14:33:16 30° 83° (E) 14:40:33 435.465 / 435.565
YUBILEINY 28 Sep 14:30:47 14:39:23 60° 79° (E) 14:47:55 435.215
AUBIESAT-1 28 Sep 14:30:50 14:33:37 25° 294° (WNW) 14:36:25 437.475
Gurwin Techsat 1B 28 Sep 14:32:18 14:37:36 87° 76° (ENE) 14:42:58 435.225
DX 1 28 Sep 14:33:02 14:36:31 24° 292° (WNW) 14:39:59 434.975-435.025
BEESAT 28 Sep 14:33:29 14:34:26 11° 90° (E) 14:35:24 436.000
VELOX 1 28 Sep 14:44:43 14:46:32 12° 297° (WNW) 14:48:22 145.980
SO-50 28 Sep 14:45:16 14:49:00 22° 111° (ESE) 14:52:43 436.795
Cosmos 2504 28 Sep 15:00:02 15:06:43 34° 74° (ENE) 15:13:46 435.465 / 435.565
TISAT 1 28 Sep 15:05:24 15:09:29 55° 286° (WNW) 15:13:33 437.305
Oscar 19 28 Sep 15:10:49 15:14:30 19° 267° (W) 15:18:12 437.125/150
PCSat 28 Sep 15:15:28 15:20:15 33° 251° (WSW) 15:25:01 145.827
PHONESAT 2.4 28 Sep 15:30:21 15:33:15 52° 201° (SSW) 15:36:08 2401.200-2431.200
ITUPSAT 1 28 Sep 15:42:17 15:47:03 59° 101° (E) 15:51:48 437.325
MOZHAYETS 4 28 Sep 15:52:53 15:54:58 13° 91° (E) 15:57:03
SWISSCUBE 28 Sep 15:54:58 15:59:48 89° 284° (WNW) 16:04:36 437.505
AO-7 28 Sep 15:55:39 16:03:58 80° 70° (ENE) 16:12:17 29.400- 29.500
ITAMSAT 1 28 Sep 16:03:49 16:08:46 45° 261° (W) 16:13:44 435.822/435.867
AIST 1 28 Sep 16:06:11 16:09:10 18° 73° (ENE) 16:12:08
BEESAT 28 Sep 16:07:54 16:12:42 73° 286° (WNW) 16:17:29 436.000
KKS-1 28 Sep 16:13:31 16:15:17 12° 91° (E) 16:17:02 437.445
Gurwin Techsat 1B 28 Sep 16:17:56 16:18:11 10° 271° (W) 16:18:27 435.225
Cosmos 2491 28 Sep 16:20:58 16:29:32 56° 282° (WNW) 16:38:13 435.465 / 435.565
SO-50 28 Sep 16:24:38 16:29:14 42° 307° (NW) 16:33:47 436.795
O/OREOS (USA 219) 28 Sep 16:26:50 16:29:18 14° 55° (NE) 16:31:45 437.305
YUBILEINY 28 Sep 16:28:36 16:35:31 28° 277° (W) 16:42:25 435.215
HORYU 2 28 Sep 16:30:23 16:32:49 15° 64° (ENE) 16:35:14 437.375
STARS 28 Sep 16:45:04 16:46:59 13° 92° (E) 16:48:53 437.465
BRITE-PL 28 Sep 16:51:39 16:55:29 19° 65° (ENE) 16:59:15 437.365/2234.400
Cosmos 2504 28 Sep 16:53:10 17:00:07 43° 271° (W) 17:07:31 435.465 / 435.565
PHONESAT 2.4 28 Sep 17:08:15 17:08:55 11° 215° (SW) 17:09:35 2401.200-2431.200
CUBESAT XI-V 28 Sep 17:14:44 17:16:38 12° 90° (E) 17:18:31 437.345
NOAA 18 28 Sep 17:20:24 17:21:37 11° 57° (ENE) 17:22:49 137.9125
ITUPSAT 1 28 Sep 17:21:42 17:24:22 15° 297° (WNW) 17:27:02 437.325
MOZHAYETS 4 28 Sep 17:27:54 17:32:28 58° 287° (WNW) 17:37:02
AIST 1 28 Sep 17:43:01 17:46:50 32° 269° (W) 17:50:38
KKS-1 28 Sep 17:47:50 17:52:11 56° 286° (WNW) 17:56:29 437.445
NOAA 15 28 Sep 17:50:11 17:54:45 30° 67° (ENE) 17:59:19 137.62
AO-7 28 Sep 17:51:49 17:57:30 20° 267° (W) 18:03:12 29.400- 29.500
O/OREOS (USA 219) 28 Sep 18:04:35 18:09:08 61° 252° (WSW) 18:13:38 437.305
HORYU 2 28 Sep 18:04:38 18:08:54 50° 259° (W) 18:13:13 437.375
CUTE-I 28 Sep 18:08:47 18:13:34 36° 69° (ENE) 18:18:22 437.470
Cubesat XI-IV 28 Sep 18:08:53 18:13:40 35° 69° (ENE) 18:18:28 437.490
GOMX 1 28 Sep 18:13:43 18:18:51 45° 72° (ENE) 18:23:45 467.674
STARS 28 Sep 18:19:22 18:23:37 52° 287° (WNW) 18:27:51 437.465
